Flag for Germany Weather past 2 weeks in Ibbenbüren, North Rhine-Westphalia, Germany

Now
61 °F

Fog.


Feels Like: 61 °F
Forecast: 55 / 65 °F
Wind: 5 mph from South

Location: Muenster / Osnabrueck

Current Time: Sep 30, 2014 at 8:58:06 AM

Latest Report: Sep 30, 2014 at 8:20 AM


Visibility: 2 mi

Pressure: 30.21 "Hg

Humidity: 100%

Dew point: 61 °F

Location of IbbenbürenLocation

Historic Weather in Ibbenbüren — Graph

°F

Ibbenbüren temperature yesterday

Maximum temperature yesterday: 73 °F (at 1:50 PM)
Minimum temperature yesterday: 52 °F (at 1:50 AM)
Average temperature yesterday: 62 °F

Past Weeks' High & Low Weather Summary

 TemperatureHumidityPressure
High79 °F (Sep 18, 2:20 PM)100% (Sep 15, 7:20 AM)30.39 "Hg (Sep 15, 7:20 AM)
Low41 °F (Sep 23, 5:50 AM)45% (Sep 22, 5:20 PM)29.80 "Hg (Sep 24, 4:20 PM)
Average60 °F85%30.05 "Hg
* Reported Sep 15 7:20 AM — Sep 30 7:50 AM, Ibbenbüren, Weather by CustomWeather, © 2014

Note: Actual official high and low records may vary slightly from our data, if they occured in-between our weather recording intervals... More about our weather records

Advertising

Ibbenbüren weather history for previous 24 hours

 ConditionsComfort  
Time TempWeatherWind HumidityBarometerVisibility
7:50 AM
Sep 30
61 °FFog.6 mph100%30.21 "Hg2 mi
7:20 AM59 °FFog.6 mph100%30.21 "Hg2 mi
6:50 AM59 °FFog.6 mph100%30.21 "Hg2 mi
6:20 AM59 °FFog.5 mph100%30.18 "Hg1 mi
5:50 AM59 °FFog.3 mph100%30.18 "Hg1 mi
5:20 AM59 °FFog.3 mph100%30.18 "Hg1 mi
4:50 AM59 °FFog.3 mph100%30.18 "Hg1 mi
4:20 AM59 °FFog.3 mph100%30.18 "Hg2 mi
3:50 AM59 °FFog.3 mph100%30.18 "Hg2 mi
3:20 AM61 °FFog.3 mph100%30.18 "Hg2 mi
2:50 AM61 °FFog.5 mph100%30.18 "Hg2 mi
2:20 AM59 °FFog.2 mph100%30.18 "Hg1 mi
1:50 AM61 °FFog.3 mph100%30.18 "Hg1 mi
1:20 AM61 °FFog.5 mph100%30.18 "Hg2 mi
12:50 AM61 °FFog.2 mph100%30.18 "Hg2 mi
12:20 AM61 °FFog.3 mph100%30.18 "Hg2 mi
11:50 PM
Sep 29
61 °FFog.3 mph100%30.18 "Hg2 mi
11:20 PM61 °FLight rain. Fog.5 mph100%30.21 "Hg2 mi
10:50 PM61 °FDrizzle. Fog.3 mph100%30.21 "Hg2 mi
10:20 PM61 °FLight rain. Fog.3 mph100%30.21 "Hg2 mi
9:50 PM61 °FLight rain. Fog.5 mph100%30.21 "Hg2 mi
9:20 PM63 °FLight rain. Fog.2 mph100%30.21 "Hg3 mi
8:50 PM63 °FLight rain. Fog.5 mph94%30.21 "Hg3 mi
8:20 PM63 °FLight rain. Partly cloudy.7 mph100%30.21 "Hg3 mi
7:50 PM64 °FLight rain. Broken clouds.7 mph94%30.18 "Hg4 mi
7:20 PM68 °FLight rain. Broken clouds.9 mph78%30.18 "Hg6 mi
6:50 PM68 °FLight rain. Partly sunny.8 mph78%30.18 "HgN/A
6:20 PM70 °FLight rain. Broken clouds.8 mph69%30.18 "HgN/A
5:50 PM70 °FSunny.7 mph69%30.18 "Hg10 mi
5:20 PM72 °FSunny.8 mph65%30.15 "Hg10 mi
4:50 PM72 °FSunny.12 mph65%30.15 "Hg10 mi
4:20 PM72 °FBroken clouds.12 mph65%30.15 "HgN/A
3:50 PM73 °FPartly sunny.10 mph57%30.15 "HgN/A
3:20 PM73 °FPartly sunny.10 mph57%30.15 "HgN/A
2:50 PM73 °FBroken clouds.8 mph61%30.15 "HgN/A
2:20 PM73 °FPartly sunny.10 mph57%30.15 "HgN/A
1:50 PM73 °FPartly sunny.6 mph61%30.15 "HgN/A
1:20 PM72 °FPassing clouds.6 mph61%30.15 "HgN/A
12:50 PM70 °FSunny.6 mph69%30.18 "Hg10 mi
12:20 PM68 °FSunny.3 mph73%30.18 "Hg10 mi
11:50 AM66 °FSunny.5 mph78%30.18 "Hg10 mi
11:20 AM64 °FSunny.5 mph83%30.18 "Hg10 mi
10:50 AM63 °FSunny.5 mph88%30.18 "Hg10 mi
10:20 AM61 °FSunny.3 mph88%30.18 "Hg10 mi
9:50 AM61 °FSunny.5 mph88%30.18 "Hg10 mi
9:20 AM57 °FSunny.3 mph94%30.18 "Hg10 mi
8:50 AM55 °FFog.2 mph100%30.18 "HgN/A
8:20 AM55 °FFog.1 mph100%30.15 "HgN/A
Weather by CustomWeather, © 2014

See weather overviewHow to use our weather pages